,,PA_Meas_PMT16A,,PR_Meas_QMR101_102,,RH_Meas_QMH101,,SR_Meas_QMS101,,TA_Meas_QMH101,,GenWind,,GenWind,
time,status,PA,status,PR,status,RH,status,SR,status,TA,status,DirAvg,status,SpdAvg,
2012-01-04, 00:00:04,VALID,918.73,VALID,0,VALID,92.6779,VALID,0,VALID,20.5804,VALID,132,VALID,0.972266,
2012-01-04, 00:01:04,VALID,918.726,VALID,0,VALID,92.3958,VALID,0,VALID,20.5804,VALID,132,VALID,0.541406,
2012-01-04, 00:02:04,VALID,918.717,VALID,0,VALID,92.4568,VALID,0,VALID,20.5789,VALID,132,VALID,0.885938,
2012-01-04, 00:03:04,VALID,918.698,VALID,0,VALID,92.2891,VALID,0,VALID,20.5789,VALID,133,VALID,0.515625,
2012-01-04, 00:04:04,VALID,918.707,VALID,0,VALID,92.0527,VALID,0,VALID,20.5999,VALID,133,VALID,0.735547,
2012-01-04, 00:05:04,VALID,918.684,VALID,0,VALID,91.9003,VALID,0,VALID,20.5789,VALID,133,VALID,0.326953,
2012-01-04, 00:06:04,VALID,918.694,VALID,0,VALID,91.5267,VALID,0,VALID,20.5609,VALID,133,VALID,0.0765625,
2012-01-04, 00:07:04,VALID,918.68,VALID,0,VALID,91.7554,VALID,0,VALID,20.5414,VALID,133,VALID,0.40625,
2012-01-04, 00:08:04,VALID,918.685,VALID,0,VALID,91.0083,VALID,0,VALID,20.5024,VALID,133,VALID,0.388281,
2012-01-04, 00:09:04,VALID,918.675,VALID,0,VALID,91.5801,VALID,0,VALID,20.4033,VALID,133,VALID,0.660156,
2012-01-04, 00:10:04,VALID,918.704,VALID,0,VALID,92.5711,VALID,0,VALID,20.3838,VALID,133,VALID,0.673828,
2012-01-04, 00:11:04,VALID,918.686,VALID,0,VALID,92.6931,VALID,0,VALID,20.4049,VALID,153,VALID,0.941406,
2012-01-04, 00:12:04,VALID,918.65,VALID,0,VALID,93.1048,VALID,0,VALID,20.3643,VALID,154,VALID,1.2332,
2012-01-04, 00:13:04,VALID,918.636,VALID,0,VALID,93.2954,VALID,0,VALID,20.3464,VALID,154,VALID,1.07383,
2012-01-04, 00:14:04,VALID,918.627,VALID,0,VALID,93.3335,VALID,0,VALID,20.3074,VALID,154,VALID,0.787891,
2012-01-04, 00:15:04,VALID,918.626,VALID,0,VALID,93.5317,VALID,0,VALID,20.2278,VALID,154,VALID,1.07891,
2012-01-04, 00:16:04,VALID,918.613,VALID,0,VALID,93.9129,VALID,0,VALID,20.1498,VALID,154,VALID,1.13086,
2012-01-04, 00:17:04,VALID,918.597,VALID,0,VALID,94.1797,VALID,0,VALID,20.0928,VALID,154,VALID,0.613672,
2012-01-04, 00:18:04,VALID,918.585,VALID,0,VALID,94.5151,VALID,0,VALID,20.0343,VALID,154,VALID,1.06875,
2012-01-04, 00:19:04,VALID,918.555,VALID,0,VALID,94.7286,VALID,0,VALID,19.9953,VALID,154,VALID,0.921094,
2012-01-04, 00:20:04,VALID,918.552,VALID,0,VALID,95.0792,VALID,0,VALID,19.9548,VALID,129,VALID,1.46523,
2012-01-04, 00:21:04,VALID,918.529,VALID,0,VALID,95.2012,VALID,0,VALID,19.9953,VALID,131,VALID,1.33789,
2012-01-04, 00:22:04,VALID,918.512,VALID,0,VALID,95.0792,VALID,0,VALID,20.0343,VALID,129,VALID,1.51836,
2012-01-04, 00:23:04,VALID,918.491,VALID,0,VALID,94.9192,VALID,0,VALID,20.0913,VALID,137,VALID,1.69492,
2012-01-04, 00:24:04,VALID,918.481,VALID,0,VALID,94.5685,VALID,0,VALID,20.1108,VALID,121,VALID,1.4207,
2012-01-04, 00:25:04,VALID,918.456,VALID,0,VALID,94.4084,VALID,0,VALID,20.1888,VALID,139,VALID,1.49805,
2012-01-04, 00:26:04,VALID,918.451,VALID,0,VALID,94.2864,VALID,0,VALID,20.2684,VALID,129,VALID,1.66445,
2012-01-04, 00:27:04,VALID,918.452,VALID,0,VALID,94.0653,VALID,0,VALID,20.3058,VALID,135,VALID,1.81289,
2012-01-04, 00:28:04,VALID,918.442,VALID,0,VALID,93.7985,VALID,0,VALID,20.3253,VALID,135,VALID,1.4793,
2012-01-04, 00:29:04,VALID,918.439,VALID,0,VALID,93.6765,VALID,0,VALID,20.3058,VALID,135,VALID,1.3457,
2012-01-04, 00:30:04,VALID,918.406,VALID,0,VALID,93.7833,VALID,0,VALID,20.3464,VALID,135,VALID,1.56758,
2012-01-04, 00:31:04,VALID,918.384,VALID,0,VALID,93.6994,VALID,0,VALID,20.3448,VALID,135,VALID,1.47695,
2012-01-04, 00:32:04,VALID,918.371,VALID,0,VALID,93.646,VALID,0,VALID,20.3643,VALID,135,VALID,0.807031,
2012-01-04, 00:33:04,VALID,918.39,VALID,0,VALID,93.4555,VALID,0,VALID,20.3448,VALID,135,VALID,0.788672,
2012-01-04, 00:34:04,VALID,918.331,VALID,0,VALID,93.5393,VALID,0,VALID,20.3074,VALID,135,VALID,0.954297,
2012-01-04, 00:35:04,VALID,918.371,VALID,0,VALID,93.6842,VALID,0,VALID,20.2863,VALID,135,VALID,1.04453,
2012-01-04, 00:36:04,VALID,918.35,VALID,0,VALID,93.7604,VALID,0,VALID,20.2684,VALID,134,VALID,1.09219,
2012-01-04, 00:37:04,VALID,918.334,VALID,0,VALID,93.5698,VALID,0,VALID,20.3269,VALID,135,VALID,1.61484,
2012-01-04, 00:38:04,VALID,918.32,VALID,0,VALID,92.8685,VALID,0,VALID,20.4618,VALID,135,VALID,1.18125,
2012-01-04, 00:39:04,VALID,918.314,VALID,0,VALID,92.0527,VALID,0,VALID,20.5204,VALID,134,VALID,0.803516,
2012-01-04, 00:40:04,VALID,918.318,VALID,0,VALID,91.7326,VALID,0,VALID,20.5024,VALID,135,VALID,0.983203,
2012-01-04, 00:41:04,VALID,918.326,VALID,0,VALID,91.8622,VALID,0,VALID,20.4618,VALID,135,VALID,1.26367,
2012-01-04, 00:42:04,VALID,918.3,VALID,0,VALID,91.6868,VALID,0,VALID,20.4813,VALID,135,VALID,1.31133,
2012-01-04, 00:43:04,VALID,918.309,VALID,0,VALID,91.3057,VALID,0,VALID,20.5219,VALID,135,VALID,0.884375,
2012-01-04, 00:44:04,VALID,918.316,VALID,0,VALID,91.2904,VALID,0,VALID,20.5009,VALID,135,VALID,1.43594,
2012-01-04, 00:45:04,VALID,918.265,VALID,0,VALID,91.481,VALID,0,VALID,20.4634,VALID,135,VALID,1.23867,
2012-01-04, 00:46:04,VALID,918.264,VALID,0,VALID,91.7478,VALID,0,VALID,20.4829,VALID,135,VALID,1.59531,
2012-01-04, 00:47:04,VALID,918.245,VALID,0,VALID,91.7326,VALID,0,VALID,20.4439,VALID,135,VALID,1.46367,
2012-01-04, 00:48:04,VALID,918.234,VALID,0,VALID,91.6563,VALID,0,VALID,20.4439,VALID,135,VALID,0.951172,
2012-01-04, 00:49:04,VALID,918.211,VALID,0,VALID,91.7402,VALID,0,VALID,20.4033,VALID,125,VALID,1.26797,
2012-01-04, 00:50:04,VALID,918.185,VALID,0,VALID,91.5572,VALID,0,VALID,20.4439,VALID,126,VALID,1.0832,
2012-01-04, 00:51:04,VALID,918.199,VALID,0,VALID,91.237,VALID,0,VALID,20.4244,VALID,126,VALID,0.588672,
2012-01-04, 00:52:04,VALID,918.21,VALID,0,VALID,91.1303,VALID,0,VALID,20.3448,VALID,126,VALID,0.420312,
2012-01-04, 00:53:04,VALID,918.209,VALID,0,VALID,91.5648,VALID,0.107441,VALID,20.3464,VALID,126,VALID,0.720703,
2012-01-04, 00:54:04,VALID,918.196,VALID,0,VALID,91.9994,VALID,0,VALID,20.2879,VALID,126,VALID,0.4,
2012-01-04, 00:55:04,VALID,918.192,VALID,0,VALID,91.9155,VALID,0,VALID,20.1888,VALID,126,VALID,0.190625,
2012-01-04, 00:56:04,VALID,918.167,VALID,0,VALID,92.6702,VALID,0,VALID,20.1483,VALID,126,VALID,1.04141,
2012-01-04, 00:57:04,VALID,918.151,VALID,0,VALID,93.0438,VALID,0.107441,VALID,20.0328,VALID,126,VALID,0.721094,
2012-01-04, 00:58:04,VALID,918.137,VALID,0,VALID,93.425,VALID,0.107441,VALID,19.9563,VALID,126,VALID,0.683594,
2012-01-04, 00:59:04,VALID,918.088,VALID,0,VALID,93.8824,VALID,0.107441,VALID,19.8768,VALID,151,VALID,1.34023,
2012-01-04, 01:00:04,VALID,918.085,VALID,0,VALID,94.0577,VALID,0,VALID,19.8198,VALID,123,VALID,0.984766,
2012-01-04, 01:01:04,VALID,918.075,VALID,0,VALID,94.4084,VALID,0.107441,VALID,19.7988,VALID,123,VALID,1.16055,
2012-01-04, 01:02:04,VALID,918.052,VALID,0,VALID,94.7819,VALID,0,VALID,19.8378,VALID,123,VALID,1.44844,
2012-01-04, 01:03:04,VALID,918.03,VALID,0,VALID,94.7743,VALID,0,VALID,19.8768,VALID,123,VALID,0.746875,
2012-01-04, 01:04:04,VALID,918.042,VALID,0,VALID,94.6981,VALID,0,VALID,19.8963,VALID,123,VALID,0.944141,
2012-01-04, 01:05:04,VALID,918.022,VALID,0,VALID,94.5685,VALID,0,VALID,19.8378,VALID,123,VALID,0.475,
2012-01-04, 01:06:04,VALID,918.029,VALID,0,VALID,94.5685,VALID,0,VALID,19.8588,VALID,125,VALID,0.555078,
2012-01-04, 01:07:04,VALID,918.034,VALID,0,VALID,94.5151,VALID,0.107441,VALID,19.8183,VALID,135,VALID,0.623828,
2012-01-04, 01:08:04,VALID,917.996,VALID,0,VALID,94.66,VALID,0,VALID,19.8783,VALID,134,VALID,1.18086,
2012-01-04, 01:09:04,VALID,918.037,VALID,0,VALID,94.5685,VALID,0,VALID,19.8783,VALID,129,VALID,0.580469,
2012-01-04, 01:10:04,VALID,918.042,VALID,0,VALID,94.4541,VALID,0,VALID,19.9173,VALID,128,VALID,0.769922,
2012-01-04, 01:11:04,VALID,918.059,VALID,0,VALID,94.5304,VALID,0,VALID,19.9158,VALID,129,VALID,0.690234,
2012-01-04, 01:12:04,VALID,918.009,VALID,0,VALID,94.294,VALID,0,VALID,19.9173,VALID,129,VALID,0.705469,
2012-01-04, 01:13:04,VALID,917.99,VALID,0,VALID,94.2254,VALID,0,VALID,19.8978,VALID,129,VALID,0.813281,
2012-01-04, 01:14:04,VALID,917.967,VALID,0,VALID,94.2102,VALID,0,VALID,19.8768,VALID,129,VALID,0.517969,
2012-01-04, 01:15:04,VALID,917.959,VALID,0,VALID,94.477,VALID,0,VALID,19.8783,VALID,128,VALID,0.765625,
2012-01-04, 01:16:04,VALID,917.934,VALID,0,VALID,94.6218,VALID,0,VALID,19.8378,VALID,128,VALID,0.742188,
2012-01-04, 01:17:04,VALID,917.892,VALID,0,VALID,94.7057,VALID,0,VALID,19.8393,VALID,129,VALID,0.774219,
2012-01-04, 01:18:04,VALID,917.937,VALID,0,VALID,94.7819,VALID,0,VALID,19.7988,VALID,129,VALID,0.763672,
2012-01-04, 01:19:04,VALID,917.932,VALID,0,VALID,94.8429,VALID,0,VALID,19.7808,VALID,128,VALID,1.18672,
2012-01-04, 01:20:04,VALID,917.966,VALID,0,VALID,95.0564,VALID,0,VALID,19.7793,VALID,128,VALID,0.988672,
2012-01-04, 01:21:04,VALID,917.967,VALID,0,VALID,95.064,VALID,0,VALID,19.7403,VALID,129,VALID,0.571484,
2012-01-04, 01:22:04,VALID,917.95,VALID,0,VALID,95.125,VALID,0,VALID,19.7598,VALID,129,VALID,0.481641,
2012-01-04, 01:23:04,VALID,917.948,VALID,0,VALID,95.1631,VALID,0,VALID,19.7403,VALID,129,VALID,0,
2012-01-04, 01:24:04,VALID,917.927,VALID,0,VALID,95.2622,VALID,0,VALID,19.7403,VALID,129,VALID,0,
2012-01-04, 01:25:04,VALID,917.889,VALID,0,VALID,95.3079,VALID,0,VALID,19.7403,VALID,128,VALID,0,
2012-01-04, 01:26:04,VALID,917.885,VALID,0,VALID,95.3689,VALID,0,VALID,19.7793,VALID,129,VALID,0,
2012-01-04, 01:27:04,VALID,917.917,VALID,0,VALID,95.3384,VALID,0,VALID,19.7793,VALID,129,VALID,0,
2012-01-04, 01:28:04,VALID,917.885,VALID,0,VALID,95.2698,VALID,0,VALID,19.7808,VALID,129,VALID,0,
2012-01-04, 01:29:04,VALID,917.892,VALID,0,VALID,94.7972,VALID,0,VALID,19.6818,VALID,129,VALID,0,
2012-01-04, 01:30:04,VALID,917.887,VALID,0,VALID,94.8582,VALID,0,VALID,19.6638,VALID,129,VALID,0,
2012-01-04, 01:31:04,VALID,917.825,VALID,0,VALID,94.9725,VALID,0,VALID,19.6248,VALID,129,VALID,0,
2012-01-04, 01:32:05,VALID,917.831,VALID,0,VALID,95.1936,VALID,0.107441,VALID,19.6038,VALID,128,VALID,0,
2012-01-04, 01:33:04,VALID,917.805,VALID,0,VALID,95.3308,VALID,0,VALID,19.6248,VALID,128,VALID,0,
2012-01-04, 01:34:05,VALID,917.781,VALID,0,VALID,95.4528,VALID,0.107441,VALID,19.6038,VALID,129,VALID,0,
2012-01-04, 01:35:05,VALID,917.792,VALID,0,VALID,95.4375,VALID,0,VALID,19.5843,VALID,128,VALID,0,
2012-01-04, 01:36:05,VALID,917.77,VALID,0,VALID,95.5595,VALID,0,VALID,19.5858,VALID,128,VALID,0,
2012-01-04, 01:37:05,VALID,917.796,VALID,0,VALID,95.6739,VALID,0,VALID,19.6038,VALID,129,VALID,0.61875,
2012-01-04, 01:38:05,VALID,917.755,VALID,0,VALID,95.7501,VALID,0,VALID,19.6248,VALID,129,VALID,0.723828,
2012-01-04, 01:39:05,VALID,917.74,VALID,0,VALID,95.7654,VALID,0,VALID,19.6233,VALID,129,VALID,0.852344,
2012-01-04, 01:40:05,VALID,917.757,VALID,0,VALID,95.7882,VALID,0,VALID,19.6623,VALID,129,VALID,0.942969,
2012-01-04, 01:41:05,VALID,917.775,VALID,0,VALID,95.7958,VALID,0,VALID,19.7613,VALID,129,VALID,0.957031,
2012-01-04, 01:42:05,VALID,917.737,VALID,0,VALID,95.6205,VALID,0,VALID,19.8393,VALID,128,VALID,1.21289,
2012-01-04, 01:43:05,VALID,917.703,VALID,0,VALID,95.3537,VALID,0.107441,VALID,19.9563,VALID,134,VALID,1.39141,
2012-01-04, 01:44:05,VALID,917.673,VALID,0,VALID,94.9801,VALID,0,VALID,20.0148,VALID,133,VALID,1.61523,
2012-01-04, 01:45:05,VALID,917.65,VALID,0,VALID,94.5151,VALID,0,VALID,20.0343,VALID,133,VALID,1.22539,
2012-01-04, 01:46:05,VALID,917.66,VALID,0,VALID,94.0806,VALID,0,VALID,20.0328,VALID,133,VALID,1.28437,
2012-01-04, 01:47:05,VALID,917.641,VALID,0,VALID,93.6079,VALID,0,VALID,20.0928,VALID,133,VALID,1.50625,
2012-01-04, 01:48:05,VALID,917.646,VALID,0,VALID,93.2039,VALID,0.107441,VALID,20.1498,VALID,133,VALID,1.36953,
2012-01-04, 01:49:05,VALID,917.661,VALID,0,VALID,92.7846,VALID,0,VALID,20.2098,VALID,133,VALID,0.495313,
2012-01-04, 01:50:05,VALID,917.652,VALID,0,VALID,92.6169,VALID,0,VALID,20.2293,VALID,133,VALID,0.833203,
2012-01-04, 01:51:05,VALID,917.626,VALID,0,VALID,92.4873,VALID,0.107441,VALID,20.2668,VALID,133,VALID,0.989844,
2012-01-04, 01:52:05,VALID,917.571,VALID,0,VALID,92.3577,VALID,0,VALID,20.3058,VALID,133,VALID,0.878516,
2012-01-04, 01:53:05,VALID,917.614,VALID,0,VALID,92.1214,VALID,0,VALID,20.3464,VALID,133,VALID,0.890234,
2012-01-04, 01:54:05,VALID,917.607,VALID,0,VALID,92.0756,VALID,0.107441,VALID,20.3448,VALID,134,VALID,0.698047,
2012-01-04, 01:55:05,VALID,917.581,VALID,0,VALID,92.0527,VALID,0,VALID,20.3448,VALID,155,VALID,1.37852,
2012-01-04, 01:56:05,VALID,917.569,VALID,0,VALID,92.3424,VALID,0,VALID,20.2684,VALID,163,VALID,1.36055,
2012-01-04, 01:57:05,VALID,917.545,VALID,0,VALID,92.9218,VALID,0,VALID,20.1108,VALID,164,VALID,1.6707,
2012-01-04, 01:58:05,VALID,917.554,VALID,0,VALID,93.4478,VALID,0,VALID,20.0328,VALID,164,VALID,0.894922,
2012-01-04, 01:59:05,VALID,917.546,VALID,0,VALID,93.8443,VALID,0,VALID,19.9548,VALID,164,VALID,0.819922,
2012-01-04, 02:00:05,VALID,917.505,VALID,0,VALID,94.1721,VALID,0.107441,VALID,19.9158,VALID,164,VALID,0.702344,
2012-01-04, 02:01:05,VALID,917.491,VALID,0,VALID,94.4008,VALID,0,VALID,19.9158,VALID,164,VALID,0.725781,
2012-01-04, 02:02:05,VALID,917.472,VALID,0,VALID,94.5609,VALID,0.107441,VALID,19.8963,VALID,164,VALID,0.514063,
2012-01-04, 02:03:05,VALID,917.455,VALID,0,VALID,94.7286,VALID,0,VALID,19.8963,VALID,164,VALID,0.137891,
2012-01-04, 02:04:05,VALID,917.433,VALID,0,VALID,94.9192,VALID,0,VALID,19.8963,VALID,144,VALID,0.647266,
2012-01-04, 02:05:05,VALID,917.422,VALID,0,VALID,94.9954,VALID,0.107441,VALID,19.9353,VALID,148,VALID,0,
2012-01-04, 02:06:05,VALID,917.433,VALID,0,VALID,95.0716,VALID,0.107441,VALID,19.9743,VALID,139,VALID,0.0277344,
2012-01-04, 02:07:05,VALID,917.415,VALID,0,VALID,95.064,VALID,0.107441,VALID,20.0328,VALID,155,VALID,0.877734,
2012-01-04, 02:08:05,VALID,917.41,VALID,0,VALID,94.942,VALID,0,VALID,20.0523,VALID,155,VALID,0.530859,
2012-01-04, 02:09:05,VALID,917.395,VALID,0,VALID,94.8353,VALID,0,VALID,20.0523,VALID,155,VALID,0.00195313,
2012-01-04, 02:10:05,VALID,917.385,VALID,0,VALID,94.7133,VALID,0,VALID,20.0913,VALID,155,VALID,0,
2012-01-04, 02:11:05,VALID,917.363,VALID,0,VALID,94.6752,VALID,0.107441,VALID,20.1108,VALID,155,VALID,0,
2012-01-04, 02:12:05,VALID,917.36,VALID,0,VALID,94.538,VALID,0.107441,VALID,20.1108,VALID,155,VALID,0,
2012-01-04, 02:13:05,VALID,917.375,VALID,0,VALID,94.4694,VALID,0.107441,VALID,20.1108,VALID,155,VALID,0,
2012-01-04, 02:14:05,VALID,917.354,VALID,0,VALID,94.4389,VALID,0,VALID,20.1513,VALID,155,VALID,0,
2012-01-04, 02:15:05,VALID,917.343,VALID,0,VALID,94.3321,VALID,0.107441,VALID,20.1513,VALID,155,VALID,0,
2012-01-04, 02:16:05,VALID,917.321,VALID,0,VALID,94.3474,VALID,0.107441,VALID,20.1303,VALID,154,VALID,0,
2012-01-04, 02:17:05,VALID,917.333,VALID,0,VALID,94.3017,VALID,0,VALID,20.1498,VALID,154,VALID,0,
2012-01-04, 02:18:05,VALID,917.34,VALID,0,VALID,94.2407,VALID,0,VALID,20.1903,VALID,154,VALID,0,
2012-01-04, 02:19:05,VALID,917.339,VALID,0,VALID,94.1339,VALID,0,VALID,20.1693,VALID,154,VALID,0,
2012-01-04, 02:20:05,VALID,917.323,VALID,0,VALID,94.0501,VALID,0,VALID,20.1903,VALID,154,VALID,0,
2012-01-04, 02:21:05,VALID,917.313,VALID,0,VALID,94.1339,VALID,0,VALID,20.1903,VALID,154,VALID,0,
2012-01-04, 02:22:05,VALID,917.261,VALID,0,VALID,94.2178,VALID,0,VALID,20.1888,VALID,154,VALID,0,
2012-01-04, 02:23:05,VALID,917.238,VALID,0,VALID,94.2178,VALID,0,VALID,20.1888,VALID,154,VALID,0,
2012-01-04, 02:24:05,VALID,917.252,VALID,0,VALID,94.1568,VALID,0,VALID,20.2083,VALID,154,VALID,0,
2012-01-04, 02:25:05,VALID,917.222,VALID,0,VALID,94.0958,VALID,0.107441,VALID,20.1888,VALID,154,VALID,0,
2012-01-04, 02:26:05,VALID,917.241,VALID,0,VALID,94.1187,VALID,0,VALID,20.2098,VALID,154,VALID,0,
2012-01-04, 02:27:05,VALID,917.229,VALID,0,VALID,94.0958,VALID,0,VALID,20.1693,VALID,154,VALID,0,
2012-01-04, 02:28:05,VALID,917.27,VALID,0,VALID,94.0196,VALID,0.107441,VALID,20.1498,VALID,154,VALID,0,
2012-01-04, 02:29:05,VALID,917.238,VALID,0,VALID,93.9662,VALID,0,VALID,20.1303,VALID,154,VALID,0,
2012-01-04, 02:30:05,VALID,917.223,VALID,0,VALID,94.1034,VALID,0.107441,VALID,20.1498,VALID,154,VALID,0.0214844,
2012-01-04, 02:31:05,VALID,917.192,VALID,0,VALID,94.1416,VALID,0,VALID,20.1903,VALID,154,VALID,0,
2012-01-04, 02:32:05,VALID,917.157,VALID,0,VALID,94.2254,VALID,0,VALID,20.2278,VALID,154,VALID,0,
2012-01-04, 02:33:05,VALID,917.149,VALID,0,VALID,94.0958,VALID,0,VALID,20.2278,VALID,153,VALID,0.000390625,
2012-01-04, 02:34:05,VALID,917.157,VALID,0,VALID,94.0653,VALID,0,VALID,20.2473,VALID,153,VALID,0,
2012-01-04, 02:35:05,VALID,917.182,VALID,0,VALID,94.0501,VALID,0.107441,VALID,20.2668,VALID,153,VALID,0.0410156,
2012-01-04, 02:36:05,VALID,917.197,VALID,0,VALID,94.073,VALID,0.107441,VALID,20.3074,VALID,154,VALID,0.000390625,
2012-01-04, 02:37:05,VALID,917.206,VALID,0,VALID,93.9205,VALID,0,VALID,20.3269,VALID,153,VALID,0,
2012-01-04, 02:38:05,VALID,917.186,VALID,0,VALID,93.8214,VALID,0,VALID,20.3058,VALID,153,VALID,0,
2012-01-04, 02:39:05,VALID,917.202,VALID,0,VALID,93.707,VALID,0.107441,VALID,20.3058,VALID,153,VALID,0,
2012-01-04, 02:40:05,VALID,917.206,VALID,0,VALID,93.646,VALID,0,VALID,20.3448,VALID,154,VALID,0,
2012-01-04, 02:41:05,VALID,917.216,VALID,0,VALID,93.5088,VALID,0,VALID,20.3659,VALID,153,VALID,0,
2012-01-04, 02:42:05,VALID,917.18,VALID,0,VALID,93.4021,VALID,0,VALID,20.3643,VALID,153,VALID,0,
2012-01-04, 02:43:05,VALID,917.204,VALID,0,VALID,93.2344,VALID,0.107441,VALID,20.3643,VALID,153,VALID,0,
2012-01-04, 02:44:05,VALID,917.192,VALID,0,VALID,93.2191,VALID,0,VALID,20.3643,VALID,153,VALID,0,
2012-01-04, 02:45:05,VALID,917.199,VALID,0,VALID,93.2496,VALID,0,VALID,20.3643,VALID,153,VALID,0,
2012-01-04, 02:46:05,VALID,917.188,VALID,0,VALID,93.303,VALID,0,VALID,20.4049,VALID,153,VALID,0,
2012-01-04, 02:47:05,VALID,917.194,VALID,0,VALID,93.2191,VALID,0.107441,VALID,20.3838,VALID,153,VALID,0,
2012-01-04, 02:48:05,VALID,917.175,VALID,0,VALID,93.2572,VALID,0,VALID,20.3838,VALID,153,VALID,0,
2012-01-04, 02:49:05,VALID,917.185,VALID,0,VALID,93.0514,VALID,0,VALID,20.3643,VALID,153,VALID,0,
2012-01-04, 02:50:05,VALID,917.156,VALID,0,VALID,93.1886,VALID,0,VALID,20.3854,VALID,148,VALID,0.0574219,
2012-01-04, 02:51:05,VALID,917.161,VALID,0,VALID,92.9447,VALID,0,VALID,20.3464,VALID,140,VALID,0,
2012-01-04, 02:52:05,VALID,917.185,VALID,0,VALID,93.1734,VALID,0,VALID,20.2668,VALID,141,VALID,0,
2012-01-04, 02:53:05,VALID,917.19,VALID,0,VALID,93.4097,VALID,0,VALID,20.2278,VALID,140,VALID,0,
2012-01-04, 02:54:05,VALID,917.2,VALID,0,VALID,93.5851,VALID,0,VALID,20.1693,VALID,140,VALID,0.0292969,
2012-01-04, 02:55:05,VALID,917.188,VALID,0,VALID,93.8138,VALID,0,VALID,20.1108,VALID,140,VALID,0.00429688,
2012-01-04, 02:56:05,VALID,917.182,VALID,0,VALID,94.0348,VALID,0.107441,VALID,20.0523,VALID,141,VALID,0.0273438,
2012-01-04, 02:57:05,VALID,917.174,VALID,0,VALID,94.1873,VALID,0.107441,VALID,19.9938,VALID,141,VALID,0.0234375,
2012-01-04, 02:58:05,VALID,917.192,VALID,0,VALID,94.4008,VALID,0,VALID,19.9743,VALID,141,VALID,0.0597656,
2012-01-04, 02:59:05,VALID,917.151,VALID,0,VALID,94.5456,VALID,0,VALID,19.9158,VALID,141,VALID,0.112109,
2012-01-04, 03:00:05,VALID,917.12,VALID,0,VALID,94.7286,VALID,0,VALID,19.9368,VALID,141,VALID,0.0839844,
2012-01-04, 03:01:05,VALID,917.088,VALID,0,VALID,94.9954,VALID,0,VALID,19.8963,VALID,147,VALID,0.115625,
2012-01-04, 03:02:05,VALID,917.07,VALID,0,VALID,95.1402,VALID,0,VALID,19.9158,VALID,147,VALID,0.828906,
2012-01-04, 03:03:05,VALID,917.057,VALID,0,VALID,95.1936,VALID,0,VALID,19.9563,VALID,147,VALID,1.44687,
2012-01-04, 03:04:05,VALID,917.066,VALID,0,VALID,95.2012,VALID,0,VALID,19.9353,VALID,147,VALID,1.09648,
2012-01-04, 03:05:05,VALID,917.054,VALID,0,VALID,95.1631,VALID,0.107441,VALID,19.9353,VALID,147,VALID,0.992969,
2012-01-04, 03:06:05,VALID,917.063,VALID,0,VALID,95.1783,VALID,0,VALID,19.9563,VALID,147,VALID,0.811719,
2012-01-04, 03:07:05,VALID,917.046,VALID,0,VALID,95.2546,VALID,0,VALID,20.0343,VALID,154,VALID,1.0707,
2012-01-04, 03:08:05,VALID,917.056,VALID,0,VALID,95.2165,VALID,0,VALID,20.0718,VALID,164,VALID,1.32656,
2012-01-04, 03:09:05,VALID,917.047,VALID,0,VALID,95.064,VALID,0,VALID,20.1303,VALID,164,VALID,1.01563,
2012-01-04, 03:10:05,VALID,917.072,VALID,0,VALID,94.881,VALID,0,VALID,20.1888,VALID,164,VALID,1.13477,
2012-01-04, 03:11:05,VALID,917.058,VALID,0,VALID,94.8124,VALID,0,VALID,20.2668,VALID,164,VALID,1.42734,
2012-01-04, 03:12:05,VALID,917.066,VALID,0,VALID,94.5685,VALID,0,VALID,20.3448,VALID,164,VALID,0.978906,
2012-01-04, 03:13:05,VALID,917.056,VALID,0,VALID,94.2635,VALID,0,VALID,20.4033,VALID,156,VALID,1.37266,
2012-01-04, 03:14:05,VALID,917.033,VALID,0,VALID,93.9662,VALID,0,VALID,20.4439,VALID,142,VALID,1.00586,
2012-01-04, 03:15:05,VALID,917.005,VALID,0,VALID,93.707,VALID,0,VALID,20.4634,VALID,148,VALID,1.00195,
2012-01-04, 03:16:05,VALID,917.007,VALID,0,VALID,93.6308,VALID,0,VALID,20.4634,VALID,134,VALID,0.602344,
2012-01-04, 03:17:05,VALID,916.974,VALID,0,VALID,93.6613,VALID,0,VALID,20.4618,VALID,139,VALID,1.29883,
2012-01-04, 03:18:05,VALID,916.975,VALID,0,VALID,93.6842,VALID,0.107441,VALID,20.4618,VALID,165,VALID,1.43125,
2012-01-04, 03:19:05,VALID,916.982,VALID,0,VALID,93.6689,VALID,0,VALID,20.5024,VALID,165,VALID,0.767578,
2012-01-04, 03:20:05,VALID,916.986,VALID,0,VALID,93.6155,VALID,0,VALID,20.5219,VALID,165,VALID,1.34961,
2012-01-04, 03:21:05,VALID,916.992,VALID,0,VALID,93.5469,VALID,0,VALID,20.5219,VALID,165,VALID,0.572266,
2012-01-04, 03:22:05,VALID,916.982,VALID,0,VALID,93.4859,VALID,0,VALID,20.5204,VALID,165,VALID,0.603906,
2012-01-04, 03:23:05,VALID,916.956,VALID,0,VALID,93.425,VALID,0,VALID,20.5204,VALID,191,VALID,1.60078,
2012-01-04, 03:24:05,VALID,916.955,VALID,0,VALID,93.425,VALID,0,VALID,20.5204,VALID,187,VALID,1.47266,
2012-01-04, 03:25:05,VALID,916.908,VALID,0,VALID,93.3335,VALID,0,VALID,20.5399,VALID,177,VALID,1.19258,
2012-01-04, 03:26:05,VALID,916.895,VALID,0,VALID,93.2877,VALID,0,VALID,20.5009,VALID,177,VALID,1.20664,
2012-01-04, 03:27:05,VALID,916.91,VALID,0,VALID,93.3335,VALID,0,VALID,20.5009,VALID,177,VALID,1.36445,
2012-01-04, 03:28:05,VALID,916.915,VALID,0,VALID,93.4097,VALID,0,VALID,20.4813,VALID,185,VALID,1.35625,
2012-01-04, 03:29:05,VALID,916.915,VALID,0,VALID,93.4859,VALID,0,VALID,20.4618,VALID,167,VALID,1.22383,
2012-01-04, 03:30:05,VALID,916.941,VALID,0,VALID,93.5317,VALID,0.107441,VALID,20.4618,VALID,174,VALID,0.748047,
2012-01-04, 03:31:05,VALID,916.955,VALID,0,VALID,93.6003,VALID,0,VALID,20.4423,VALID,174,VALID,0.378125,
2012-01-04, 03:32:05,VALID,916.971,VALID,0,VALID,93.6155,VALID,0,VALID,20.4829,VALID,174,VALID,0.0328125,
2012-01-04, 03:33:05,VALID,916.996,VALID,0,VALID,93.6079,VALID,0,VALID,20.4423,VALID,174,VALID,0.163281,
2012-01-04, 03:34:05,VALID,916.968,VALID,0,VALID,93.646,VALID,0,VALID,20.4618,VALID,174,VALID,0.078125,
2012-01-04, 03:35:05,VALID,916.967,VALID,0,VALID,93.6384,VALID,0.107441,VALID,20.4618,VALID,174,VALID,0.541797,
2012-01-04, 03:36:05,VALID,916.938,VALID,0,VALID,93.6232,VALID,0.107441,VALID,20.4813,VALID,174,VALID,0.887109,
2012-01-04, 03:37:05,VALID,916.918,VALID,0,VALID,93.6155,VALID,0,VALID,20.5024,VALID,174,VALID,0.816797,
2012-01-04, 03:38:05,VALID,916.902,VALID,0,VALID,93.5317,VALID,0,VALID,20.5024,VALID,174,VALID,0.277344,
2012-01-04, 03:39:05,VALID,916.897,VALID,0,VALID,93.4402,VALID,0,VALID,20.5219,VALID,174,VALID,0.00117188,
2012-01-04, 03:40:05,VALID,916.889,VALID,0,VALID,93.3487,VALID,0,VALID,20.5219,VALID,174,VALID,0,
2012-01-04, 03:41:05,VALID,916.869,VALID,0,VALID,93.2954,VALID,0,VALID,20.5024,VALID,174,VALID,0.0398437,
2012-01-04, 03:42:05,VALID,916.854,VALID,0,VALID,93.2191,VALID,0,VALID,20.4618,VALID,174,VALID,0.294141,
2012-01-04, 03:43:05,VALID,916.881,VALID,0,VALID,93.364,VALID,0,VALID,20.4244,VALID,174,VALID,0,
2012-01-04, 03:44:05,VALID,916.879,VALID,0,VALID,93.5012,VALID,0,VALID,20.3854,VALID,174,VALID,0,
2012-01-04, 03:45:05,VALID,916.865,VALID,0,VALID,93.5088,VALID,0,VALID,20.3659,VALID,174,VALID,0,
2012-01-04, 03:46:05,VALID,916.867,VALID,0,VALID,93.6613,VALID,0,VALID,20.3269,VALID,174,VALID,0.755469,